Regional Weather Roundup
Issued by NWS

Home | Current Version | Previous Version | Graphics & Text | Print | Product List | Glossary On
Versions: 1 2 3 4 5 6 7 8 9 10 11 12 13 14 15 16 17 18 19 20 21 22 23 24 25 26 27 28 29 30 31 32 33 34 35 36 37 38 39 40 41 42 43 44 45 46 47 48 49 50
000
ASUS45 KCYS 051210
RWRWY

WYOMING REGIONAL WEATHER ROUNDUP
NATIONAL WEATHER SERVICE CHEYENNE WY
600 AM MDT THU MAY 05 2016

NOTE:  "FAIR" INDICATES FEW OR NO CLOUDS BELOW 12,000 FEET
WITH NO SIGNIFICANT WEATHER AND/OR OBSTRUCTIONS TO VISIBILITY.

WYZ001-051300-
YELLOWSTONE NATIONAL PARK

CITY           SKY/WX    TMP DP  RH WIND       PRES   REMARKS
LK YELLOWSTONE   N/A     30  26  85 CALM      30.20S
6HR MIN TEMP:  30; 6HR MAX TEMP:  36;

W YELLOWSTONE  NOT AVBL

$$
WYZ002>013-054>058-071-098>099-051300-
NORTHERN WYOMING

CITY           SKY/WX    TMP DP  RH WIND       PRES   REMARKS
JACKSON        FAIR      34  28  80 N3        30.13S
CODY           FAIR      57  28  33 SW5       30.00R
GREYBULL       FAIR      52  31  44 E3        29.95S
6HR MIN TEMP:  51; 6HR MAX TEMP:  65;

WORLAND        FAIR      48  40  73 SW7       29.96S
6HR MIN TEMP:  47; 6HR MAX TEMP:  58;

SHERIDAN       FAIR      44  35  70 CALM      29.94S
6HR MIN TEMP:  42; 6HR MAX TEMP:  53;

BUFFALO        FAIR      55  28  35 CALM      30.00S
6HR MIN TEMP:  53; 6HR MAX TEMP:  64;

GILLETTE       FAIR      49  40  71 SE10      29.98F
6HR MIN TEMP:  47; 6HR MAX TEMP:  56;

HULETT         FAIR      54  37  54 SW5       30.00S
NEWCASTLE      FAIR      50  34  53 CALM      30.03R

$$
WYZ014>020-022>026-101>103-051300-
CENTRAL WYOMING

CITY           SKY/WX    TMP DP  RH WIND       PRES   REMARKS
BIG PINEY      FAIR      35  28  75 CALM      30.16F
6HR MIN TEMP:  35; 6HR MAX TEMP:  46;

PINEDALE       FAIR      32  30  93 NW7       30.18S WCI  26
DUBOIS         FAIR      39  23  52 W12       30.14S WCI  32
LANDER         FAIR      57  27  31 CALM      30.04S
6HR MIN TEMP:  53; 6HR MAX TEMP:  65;

RIVERTON       FAIR      49  39  68 NW7       30.06R
6HR MIN TEMP:  48; 6HR MAX TEMP:  58;

CASPER         FAIR      49  36  61 W13       30.06S
6HR MIN TEMP:  41; 6HR MAX TEMP:  50;

DOUGLAS        FAIR      40  37  89 CALM      30.06S
6HR MIN TEMP:  40; 6HR MAX TEMP:  50;


$$
WYZ021-027>030-104>119-051300-
SOUTHERN WYOMING

CITY           SKY/WX    TMP DP  RH WIND       PRES   REMARKS
EVANSTON       MOCLDY    52  24  33 SE8       30.12F
6HR MIN TEMP:  50; 6HR MAX TEMP:  56;

KEMMERER         N/A     37  32  81 N12       30.15F WCI  30
FORT BRIDGER   SUNNY     46  30  53 S7        30.16S
ROCK SPRINGS   FAIR      47  28  47 SE6       30.15S
6HR MIN TEMP:  47; 6HR MAX TEMP:  56;

DIXON          FAIR      43  29  59 CALM      30.21S
RAWLINS        FAIR      38  30  73 CALM      30.17S
6HR MIN TEMP:  38; 6HR MAX TEMP:  48;

SARATOGA       FAIR      41  28  60 S12       30.20S
LARAMIE        FAIR      38  30  73 S10       30.20F WCI  31
6HR MIN TEMP:  35; 6HR MAX TEMP:  46;

CHEYENNE       FAIR      48  34  58 W13       30.15S
6HR MIN TEMP:  45; 6HR MAX TEMP:  52;

TORRINGTON     FAIR      46  39  76 E9        30.04S
6HR MIN TEMP:  45; 6HR MAX TEMP:  55;

PINE BLUFFS    FAIR      37  36  93 CALM      30.12S

$$



USA.gov is the U.S. government's official web portal to all federal, state and local government web resources and services.